Tracking 25734 objects as of 27-May-2022
HD Live streaming from Space Station
objects crossing your sky now

BEIDOU 3M17

Track BEIDOU 3M17 now!
BEIDOU 3M17 is classified as:


NORAD ID: 43706
Int'l Code: 2018-093A
Perigee: 21,508.2 km
Apogee: 21,562.0 km
Inclination: 54.4 °
Period: 773.2 minutes
Semi major axis: 27906 km
RCS: Unknown
Launch date: November 18, 2018
Source: People's Republic of China (PRC)
Launch site: Xichang Space Center, China (XSC)
aabbcc
Your satellite tracking list
Your tracking list is empty




NASA's NSSDC Master Catalog

Two Line Element Set (TLE):
1 43706U 18093A   22146.24552990 -.00000024  00000-0  00000-0 0  9999
2 43706  54.3628 232.7286 0009625 270.9173  89.0130  1.86231952 23925
Source of the keplerian elements: AFSPC